Location: La Bouzenais
(47.4870°N, 1.5621°W)
Time: 05:18:38
(UTC+00:00)

Daily predictions for brighter satellites

Satellite Brightness Start Highest point End
(mag) Time Altitude Azimuth Time Altitude Azimuth Time Altitude Azimuth
Cosmos 1025 Rocket 4.1 00:03:21 10° N 00:06:21 43° NNE 00:06:21 43° NNE
USA 267 4.3 00:02:11 10° NE 00:08:16 43° NNW 00:14:21 10° W
SJ 16-02 3.5 00:09:53 19° ENE 00:09:53 19° ENE 00:11:46 10° NE
Okean 2 Rocket 4.0 00:10:41 48° NNE 00:10:41 48° NNE 00:14:00 10° NNE
Cosmos 1538 Rocket 4.1 00:06:31 10° NNW 00:11:04 69° NNW 00:11:04 69° NNW
SL-16 R/B 2.7 00:07:25 10° NNW 00:12:59 52° ENE 00:13:48 48° E
Nadezhda 4 Rocket 3.8 00:09:12 10° N 00:15:29 79° W 00:15:44 77° SW
Cosmos 2297 Rocket 2.1 00:28:55 84° NNE 00:28:55 84° NNE 00:34:24 10° NNE
Cosmos 2344 4.3 00:22:35 10° NW 00:32:07 78° SW 00:38:10 37° SSE
Cosmos 1980 4.5 00:28:58 10° NW 00:33:21 40° W 00:33:21 40° W
Cosmos 1092 Rocket 3.8 00:30:00 10° N 00:36:15 87° W 00:36:34 81° SSW
USA 229 DEB 4.4 00:36:45 35° ESE 00:36:45 35° ESE 00:42:34 10° NE
USA 229 4.5 00:36:53 34° ESE 00:36:53 34° ESE 00:42:40 10° NE
In-Cosmos 22 4.2 00:31:16 10° NNW 00:36:23 70° WNW 00:36:23 70° WNW
Cosmos 2034 Rocket 4.2 00:37:47 57° WSW 00:38:23 59° WNW 00:44:40 10° N
Cosmos 2219 3.3 00:41:47 63° WNW 00:42:00 64° WNW 00:47:37 10° NNE
Cosmos 2237 Rocket 3.1 00:37:03 10° NW 00:41:12 36° W 00:41:12 36° W
Cosmos 2151 Rocket 4.4 00:43:30 48° NNW 00:43:30 48° NNW 00:46:49 10° N
Meteor 1-15 Rocket 4.3 00:43:07 68° E 00:43:07 68° E 00:48:37 10° NNE
Meteor 1-24 Rocket 4.3 00:43:13 10° N 00:48:23 44° ENE 00:49:06 41° E
Cosmos 1680 Rocket 3.6 00:46:16 10° NNW 00:51:27 70° ENE 00:51:27 70° ENE
Cosmos 1674 4.4 00:47:51 10° N 00:49:53 31° N 00:49:53 31° N
CZ-4 R/B 4.0 00:46:40 10° NNE 00:51:18 75° N 00:51:18 75° N
Cosmos 1461 3.9 00:55:29 46° NE 00:55:29 46° NE 00:58:47 10° NE
PSLV R/B 4.3 01:02:02 10° N 01:06:13 53° NW 01:06:13 53° NW
CZ-2D R/B 3.2 01:02:19 10° NNE 01:07:17 34° E 01:08:00 33° ESE
Cosmos 1766 4.5 01:11:18 41° NNE 01:11:18 41° NNE 01:13:54 10° NNE
SL-16 R/B 3.0 01:09:25 36° SE 01:11:49 56° ENE 01:17:55 10° N
Cosmos 1943 4.4 01:06:48 10° NNW 01:12:03 38° NE 01:16:10 15° ESE
Cosmos 1733 4.4 01:14:34 40° NNE 01:14:34 40° NNE 01:17:11 10° NNE
Cosmos 1607 4.3 01:08:52 10° NW 01:14:31 50° W 01:14:31 50° W
Cosmos 1626 3.6 01:12:54 10° N 01:15:17 36° N 01:15:17 36° N
Cosmos 1655 Rocket 4.2 01:10:36 10° N 01:16:50 65° ENE 01:18:27 48° SE
Cosmos 2227 Rocket 2.8 01:18:31 43° W 01:19:25 47° NW 01:24:53 10° NNE
Cosmos 1470 4.2 01:24:19 33° ENE 01:24:19 33° ENE 01:27:27 10° NNE
Meteor 2-5 Rocket 3.5 01:19:21 10° NNW 01:24:57 73° W 01:25:04 73° WSW
Meteor 1-22 Rocket 4.0 01:25:04 71° SE 01:25:22 73° E 01:30:45 10° NNE
NPP 4.4 01:21:05 10° NNE 01:26:10 40° E 01:27:05 37° ESE
Helios 1B rocket 3.4 01:22:51 10° N 01:25:58 40° NW 01:25:58 40° NW
Cosmos 2026 Rocket 4.3 01:22:58 10° NNW 01:28:46 47° W 01:29:04 47° W
Cosmos 2279 Rocket 3.8 01:29:43 65° SSW 01:30:39 81° W 01:36:55 10° N
Cosmos 1805 4.5 01:32:08 36° NNW 01:32:08 36° NNW 01:34:48 10° N
Resurs 1-4 Rocket 2.2 01:35:37 10° NNE 01:40:52 63° ESE 01:41:36 57° SE
Cosmos 2180 Rocket 4.3 01:39:58 62° SSW 01:41:06 85° W 01:47:17 10° N
Cosmos 2098 Rocket 3.9 01:38:45 10° N 01:44:23 79° E 01:46:32 45° SSE
NOSS 2-3 (E) 3.9 01:44:49 58° ESE 01:44:49 58° ESE 01:49:28 10° NE
Cosmos 2082 4.1 01:44:36 44° W 01:45:37 49° WNW 01:51:06 10° NNE
Okean 1 Rocket 4.2 01:46:41 33° WNW 01:46:41 33° WNW 01:50:10 10° N
SJ 16-02 2.2 01:46:52 41° NW 01:46:52 41° NW 01:50:52 10° N
NOSS 3-1 (C) 3.2 01:48:09 59° WSW 01:49:16 79° NW 01:55:47 10° NE
USA 267 4.5 01:44:27 10° ENE 01:50:28 41° N 01:56:29 10° WNW
SL-14 R/B 4.5 01:50:05 10° NNW 01:52:33 33° NW 01:52:33 33° NW
Meteor 2-19 Rocket 4.4 01:48:16 10° NNW 01:54:23 66° W 01:55:33 55° SW
SL-16 R/B 3.4 01:52:02 10° NW 01:55:38 26° W 01:55:38 26° W
Cosmos 2263 Rocket 2.3 01:56:40 51° SSE 01:57:46 61° ESE 02:03:15 10° NNE
MOZ.5/SAFIR/RUBIN 5/SL-8 4.2 02:00:53 46° W 02:00:53 46° W 02:05:00 10° NNW
Cosmos 724 4.3 01:57:04 10° NW 02:02:58 59° WSW 02:03:52 53° SSW
CZ-4C R/B 4.0 02:05:30 41° NW 02:05:30 41° NW 02:08:04 10° NNW
Cosmos 372 Rocket 4.3 02:04:37 46° SSE 02:05:47 58° ESE 02:10:57 10° NNE
Cosmos 1937 Rocket 3.5 02:07:18 57° WSW 02:08:14 69° WNW 02:13:34 10° NNE
NOSS 2-3 (D) 3.5 02:08:30 76° SSW 02:08:51 86° SE 02:13:56 10° NE
Okean 1-7 Rocket 3.8 02:04:37 10° NNW 02:08:38 54° WNW 02:08:38 54° WNW
COBE Rocket 3.8 02:08:32 50° SSE 02:09:42 77° ENE 02:14:21 10° N
Cosmos 1809 Rocket 4.4 02:04:06 10° N 02:10:15 80° E 02:13:15 32° SSE
Cosmos 990 Rocket 4.5 02:09:50 41° W 02:10:43 46° WNW 02:15:42 10° NNE
Cosmos 1626 Rocket 3.5 02:08:02 10° N 02:12:22 76° E 02:13:03 60° SE
ADEOS II 2.7 02:07:21 10° NNE 02:12:28 49° E 02:14:31 32° SSE
Cosmos 1455 Rocket 3.2 02:12:38 59° W 02:12:44 59° WNW 02:17:10 10° N
Cosmos 2297 Rocket 4.1 02:10:42 14° WNW 02:13:35 20° NW 02:17:43 10° N
ATLAS CENTAUR R/B 2.4 02:13:46 33° ESE 02:13:52 34° ESE 02:17:27 10° NE
Cosmos 1726 2.4 02:14:19 59° E 02:14:19 59° E 02:17:54 10° NNE
CZ-4B R/B 3.5 02:10:44 10° NNE 02:15:28 64° ESE 02:16:40 47° SSE
UNK 4.1 02:17:20 47° W 02:17:20 47° W 02:21:43 10° NNW
Cosmos 2266 Rocket 4.1 02:14:56 10° NNW 02:21:07 58° W 02:22:57 42° SW
Cosmos 1898 Rocket 4.3 02:24:13 33° W 02:25:28 38° WNW 02:30:21 10° N
GEOS 3 Rocket 3.6 02:21:10 10° NE 02:26:37 89° WNW 02:28:25 44° SW
USA 229 DEB 3.9 02:24:10 33° WSW 02:27:09 60° NW 02:34:03 10° NE
USA 229 3.9 02:24:18 33° WSW 02:27:16 60° NW 02:34:08 10° NE
Meteor 1-21 Rocket 4.1 02:23:15 10° NNW 02:28:49 90° ENE 02:31:40 30° S
Meteor 2-21 4.3 02:22:46 10° N 02:28:52 86° W 02:32:12 29° S
CBERS-1 4.0 02:24:09 10° NNE 02:29:17 75° ESE 02:31:10 40° S
Meteor 2-10 4.2 02:27:11 41° S 02:29:17 87° E 02:35:03 10° NNE
Cosmos 2084 3.8 02:28:47 49° SSE 02:29:29 56° SE 02:33:51 10° NE
ARIANE 5 R/B 3.6 02:27:52 10° NNE 02:32:49 40° E 02:36:11 19° SSE
Cosmos 1932 4.4 02:26:48 10° NW 02:33:16 71° WSW 02:39:35 10° SSE
Cosmos 1758 Rocket 4.3 02:30:55 10° N 02:35:09 50° ENE 02:38:14 17° SSE
NOSS 2-3 (C) 4.0 02:35:34 42° W 02:36:49 58° NW 02:41:59 10° NE
Cosmos 1603 3.9 02:32:13 10° NW 02:37:42 47° WSW 02:39:05 39° SSW
NOSS 3-1 (A) 3.6 02:36:02 35° WSW 02:38:24 63° NW 02:44:56 10° NE
Cosmos 1340 Rocket 3.7 02:42:44 32° WNW 02:42:50 32° WNW 02:46:25 10° N
Cosmos 494 Rocket 4.4 02:39:01 10° NNW 02:44:09 61° ENE 02:49:18 10° SE
MINOTAUR IV R/B 4.4 02:39:43 10° NNW 02:44:13 73° WSW 02:46:15 31° S
Cosmos 2150 Rocket 4.0 02:42:28 37° SSW 02:44:33 81° ESE 02:49:51 10° NNE
Cosmos 1758 4.1 02:44:28 35° W 02:44:39 35° WNW 02:48:22 10° N
CZ-2D R/B 2.9 02:42:17 10° N 02:47:23 40° WNW 02:49:19 30° WSW
H-2A R/B 4.1 02:44:39 10° ESE 02:48:05 26° ENE 02:51:31 10° N
Cosmos 1703 3.3 02:46:46 10° N 02:50:45 79° E 02:52:42 29° SSE
Cosmos 1825 Rocket 3.9 02:49:26 10° N 02:53:45 62° ENE 02:57:29 13° SSE
SL-16 R/B 3.4 02:54:31 27° WSW 02:55:44 29° W 03:01:04 10° NW
Cosmos 1943 3.6 02:50:55 10° NW 02:56:07 40° WSW 02:57:52 31° SSW
Cosmos 1125 Rocket 3.7 02:54:01 27° S 02:56:50 69° ESE 03:02:06 10° NNE
Nadezhda 2 Rocket 4.4 02:52:32 10° NNW 02:58:41 66° W 03:02:51 21° S
USA 215 3.9 02:53:32 10° ENE 02:59:47 46° SE 03:03:50 21° SSW
Cosmos 1470 4.4 02:59:40 21° WNW 02:59:58 21° WNW 03:03:03 10° NNW
Cosmos 1953 2.7 02:59:36 39° WSW 03:00:28 46° WNW 03:04:25 10° N
IRS-1C 4.1 02:55:15 10° NNE 03:00:37 88° ESE 03:03:50 25° SSW
IRS-1D 3.8 02:58:45 10° N 03:03:44 55° WNW 03:06:07 30° SW
Cosmos 1328 3.7 03:00:35 10° N 03:04:36 86° WSW 03:07:02 23° S
Cosmos 1953 Rocket 4.2 03:00:47 10° N 03:05:13 56° ENE 03:09:35 10° SSE
CZ-2D R/B 3.9 03:06:12 10° NNE 03:10:08 56° E 03:12:51 19° S
Resurs 1-4 Rocket 3.6 03:16:18 10° N 03:20:15 22° WNW 03:22:40 16° W
Meteor 2-8 Rocket 4.4 03:15:17 16° S 03:20:19 87° W 03:26:28 10° N
NOSS 8 (F) 4.2 03:20:18 38° WSW 03:21:18 69° NW 03:24:19 10° NE
Cosmos 1606 Rocket 3.5 03:19:24 20° S 03:22:32 89° W 03:27:02 10° N
Atlas Centaur 2 4.0 03:20:39 16° SSW 03:22:37 18° S 03:27:12 10° SE
NOSS 2-2 (E) 3.9 03:22:45 21° S 03:24:47 44° ESE 03:28:33 10° NE
CENTAUR R/B 4.5 03:18:05 10° NW 03:25:23 42° NE 03:33:29 10° ESE
NOSS 2-2 (D) 4.3 03:23:30 17° S 03:25:42 34° ESE 03:29:14 10° NE
IDEFIX/ARIANE 42P 2.6 03:24:03 10° NNE 03:29:17 83° ESE 03:34:08 12° SSW
USA 267 3.6 03:26:28 10° ESE 03:32:56 68° NNE 03:39:27 10° NW
Cosmos 1908 3.8 03:31:23 25° SW 03:33:11 40° WNW 03:36:55 10° N
Cosmos 1417 Rocket 4.5 03:29:10 14° SSW 03:34:37 71° W 03:40:51 10° N
MSX 4.2 03:29:24 10° NNE 03:35:11 67° ESE 03:40:55 10° S
Cosmos 1726 Rocket 3.5 03:33:33 15° SSW 03:37:14 79° W 03:41:44 10° N
Cosmos 2228 3.2 03:36:23 18° SSW 03:39:30 59° WNW 03:43:53 10° N
Helios 1B 4.5 03:36:13 10° S 03:40:33 78° WSW 03:44:54 10° NNW
Cosmos 2263 Rocket 3.5 03:38:22 14° W 03:42:06 27° NW 03:46:48 10° N
Cosmos 1844 3.9 03:37:25 12° SSW 03:42:46 74° ESE 03:48:31 10° NNE
Meteor 1-28 Rocket 4.2 03:41:32 21° SW 03:43:08 28° W 03:46:27 10° NW
Cosmos 1386 Rocket 4.4 03:40:30 10° NNW 03:46:28 66° W 03:52:24 10° S
SL-08 R/B 4.2 03:44:25 14° SSW 03:47:55 31° W 03:52:18 10° NNW
CZ-2C R/B 2.6 03:45:01 10° NNE 03:48:51 87° WNW 03:52:32 10° SSW
Cosmos 1726 4.3 03:48:49 11° W 03:49:53 12° WNW 03:51:12 10° NW
Cosmos 1356 Rocket 3.5 03:46:41 15° SSW 03:50:03 59° WNW 03:54:07 10° N
ADEOS II 3.3 03:47:33 10° N 03:51:54 27° WNW 03:55:28 14° WSW
ATLAS CENTAUR R/B 2.4 03:49:57 15° W 03:52:46 32° NW 03:56:16 10° NNE
Cosmos 1300 2.6 03:49:36 11° SSW 03:53:12 72° W 03:57:03 10° N
Spot 4 Rocket 4.2 03:48:28 10° N 03:53:34 61° WNW 03:58:31 11° SSW
ERS-2 2.0 03:52:50 10° SSE 03:56:29 79° WSW 04:00:09 10° NNW
CZ-4C R/B 3.0 03:56:09 10° S 03:59:22 51° W 04:02:43 10° NNW
Cosmos 1269 Rocket 4.1 03:54:38 10° NNW 03:59:48 54° WSW 04:04:57 10° S
Cosmos 2278 Rocket 4.0 03:59:07 10° SSE 04:03:57 30° ESE 04:08:49 10° NE
COSMOS 2441 4.3 03:59:16 10° N 04:04:06 79° WNW 04:08:55 10° SSW
Cosmos 1844 Rocket 2.8 03:59:23 12° SW 04:04:34 65° WNW 04:10:08 10° NNE
Cosmos 2251 Rocket 4.4 04:01:45 10° NNW 04:07:02 55° ENE 04:12:19 10° SE
Cosmos 1833 Rocket 4.0 04:03:21 10° NNW 04:08:48 45° NE 04:14:12 10° SE
NOSS 2-2 (C) 3.1 04:05:43 12° SW 04:08:57 85° NW 04:12:59 10° NE
Lacrosse 5 rocket 3.6 04:06:18 10° S 04:09:51 23° SE 04:13:30 10° ENE
NOSS 3-2 (A) 4.2 04:02:56 10° NW 04:10:24 82° NE 04:18:51 10° SE
ARIANE 5 R/B 3.5 04:07:12 10° N 04:11:48 32° WNW 04:16:23 10° SW
USA 281 4.1 04:05:52 10° NE 04:12:14 50° ESE 04:18:33 10° S
SeaSat 1 3.3 04:10:24 10° NE 04:15:13 50° ESE 04:19:59 10° S
Meteor 2-10 Rocket 4.4 04:15:45 10° S 04:20:53 56° E 04:26:16 10° NNE
SAR-Lupe-1 4.5 04:17:50 10° SSE 04:21:24 69° ENE 04:24:58 10° N
Cosmos 1867 3.6 04:18:01 10° NW 04:23:30 79° WSW 04:28:56 10° SSE
H-2A R/B 2.7 04:20:19 10° SSW 04:23:59 31° W 04:27:40 10° NNW
Cosmos 2058 Rocket 3.6 04:19:47 10° SSW 04:24:00 41° WNW 04:28:14 10° N
Cosmos 2058 2.9 04:25:45 10° NNW 04:29:57 79° W 04:34:08 10° S
CZ-2C R/B 2.3 04:27:08 10° NNE 04:31:45 80° WNW 04:36:27 10° SSW
Cosmos 2074 Rocket 4.5 04:25:38 10° N 04:31:56 70° E 04:38:12 10° SSE
